SCP
0 0 0 0 0 0 0 0 -0 -0 -0 -0 -0 -0 -0 0 0 0 0 0 0 0 0 0 0 -0 0 0 0 -0 0 0 0 0 0 0 0 0 0 0 0 0 -0 -0
-0 0 0 0 0 0 0 0 -0 -0 -0 -0 -0 -0 -0 0 0 0 0 0 0 0 0 -0 -0 -0 0 0 -0 -0 0 0 0 0 0 0 0 0 0 0 0 0 -0 -0
-0 0 0 -0 -0 0 0 -0 -0 -0 -0 -0 -0 -0 -0 0 0 0 0 0 0 0 0 0 -0 -0 -0 -0 -0 -0 -0 0 0 0 0 -0 0 0 0 0 0 0 0 -0
-0 -0 -0 0 0 0 0 0 0 0 -0 -0 -0 -0 -0 -0 0 0 0 0 0 0 0 0 0 -0 -0 -0 -0 -0 -0 0 0 -0 -0 -0 -0 -0 0 0 0 0 0 0
0 0 0 -0 0 0 0 0 0 0 0 -0 -0 -0 -0 0 0 0 0 0 0 0 0 0 0 -0 -0 -0 -0 -0 -0 -0 -0 -0 -0 -0 -0 -0 0 0 0 0 0 0
0 0 0 0 -0 0 0 0 0 0 0 0 0 0 0 0 0 0 0 0 0 0 0 0 -0 0 -0 -0 0 0 0 -0 -0 -0 -0 -0 -0 -0 -0 0 0 0 0 0
0 0 -0 -0 -0 0 0 0 0 0 0 0 0 0 0 0 0 0 0 0 0 0 0 -0 0 0 0 0 0 0 0 -0 -0 -0 -0 -0 -0 0 -0 0 0 0 0 0
0 0 0 -0 -0 0 0 0 0 0 0 0 0 0 0 0 0 0 0 0 0 0 0 -0 0 0 -0 -0 -0 -0 -0 -0 -0 -0 -0 -0 -0 0 0 0 0 0 0 0
0 0 0 0 -0 0 -0 0 0 0 0 0 0 0 0 0 0 0 0 0 0 0 0 0 0 0 -0 -0 -0 0 -0 -0 -0 -0 0 0 -0 -0 0 0 0 0 0 0
0 0 0 0 0 -0 0 0 0 0 0 0 0 0 0 0 0 0 0 0 0 0 0 0 0 0 0 0 -0 -0 -0 0 0 0 0 0 0 -0 -0 0 0 0 0 0
-0 -0 -0 0 -0 -0 0 0 0 0 0 0 0 0 0 0 0 0 0 0 0 0 0 0 0 0 0 0 -0 0 -0 0 0 0 0 0 0 0 0 0 0 0 0 0
0 -0 0 0 -0 0 0 0 0 0 0 0 0 0 0 0 0 0 0 0 0 0 0 0 0 0 0 0 0 0 0 0 0 0 0 0 0 0 0 0 -0 -0 -0 0
0 0 0 -0 -0 -0 0 0 0 0 0 0 0 0 0 0 0 0 0 0 0 0 0 0 0 0 0 0 0 0 0 0 0 0 0 0 0 0 0 0 0 0 0 0
-0 -0 -0 -0 -0 0 0 0 0 0 0 0 0 0 0 0 0 0 0 0 0 0 0 0 0 0 0 0 0 0 0 0 0 0 0 0 0 0 0 0 0 0 0 0
0 -0 -0 -0 -0 0 0 0 0 0 0 0 0 0 0 0 0 0 0 -0 0 0 0 0 0 0 0 0 0 0 0 0 0 0 0 0 0 0 0 0 0 0 0 0
-0 -0 -0 -0 -0 0 0 0 0 0 0 0 0 0 0 0 0 0 0 0 0 0 0 0 0 0 0 -0 0 0 0 0 0 0 0 0 0 0 0 0 0 0 0 0
0 0 0 -0 0 -0 0 0 0 0 0 0 0 0 0 0 0 0 0 0 0 0 0 0 0 0 0 0 -0 0 0 0 0 0 0 0 0 0 0 0 0 0 0 0
-0 -0 -0 -0 0 0 0 0 0 0 0 0 0 0 0 0 0 0 0 0 0 0 0 0 0 0 0 0 0 0 0 0 0 0 0 0 0 0 0 0 0 0 -0 0
-0 -0 -0 -0 -0 0 0 0 0 0 0 0 0 0 0 0 0 0 0 0 0 0 0 0 0 0 0 0 0 0 0 0 0 0 0 0 0 0 0 0 0 0 -0 0
-0 -0 -0 -0 -0 0 0 0 0 0 0 0 0 0 0 0 0 0 0 0 0 0 0 0 0 0 0 0 0 0 0 0 0 0 0 0 0 0 0 0 0 0 0 0
-0 -0 -0 -0 -0 -0 0 0 0 0 0 0 0 0 0 0 0 0 0 0 0 0 0 0 0 0 0 0 0 0 0 0 0 0 0 0 0 0 0 0 0 0 0 0
-0 -0 -0 -0 -0 -0 -0 0 0 0 0 0 0 0 0 0 0 0 0 0 0 0 0 0 0 0 0 0 0 0 0 0 0 0 0 0 0 0 0 0 0 0 -0 -0
-0 -0 -0 -0 -0 -0 -0 -0 0 0 0 0 0 0 0 0 0 0 0 0 0 0 0 0 0 0 0 0 0 0 0 0 0 0 0 0 0 0 0 0 0 0 0 0
0 0 0 0 -0 -0 -0 -0 -0 -0 0 0 0 0 0 0 0 0 0 0 0 0 0 0 0 0 0 0 0 0 0 0 0 0 0 0 0 0 0 0 0 0 0 0
0 0 0 0 0 -0 -0 -0 -0 -0 -0 0 -0 0 -0 -0 0 0 0 0 0 0 0 0 0 0 0 0 0 0 0 0 0 0 0 0 0 0 0 0 0 0 0 0
0 0 -0 -0 -0 -0 -0 -0 -0 -0 -0 -0 0 -0 -0 -0 -0 -0 0 0 0 0 0 0 0 0 0 0 0 0 0 0 0 0 0 0 0 0 0 0 0 0 0 0
-0 0 0 0 -0 -0 -0 0 0 -0 -0 -0 -0 -0 -0 -0 -0 0 0 0 0 0 0 0 0 0 0 0 0 0 0 0 0 0 0 0 0 0 0 0 0 0 0 0
Wind_Speed_500mb
18 22 20 21 26 29 29 24 18 7 6 26 30 33 32 48 45 17 24 36 42 50 54 58 60 59 56 50 43 38 39 35 27 21 17 18 17 23 32 21 14 10 4 6
20 22 27 31 30 34 36 36 34 29 28 32 41 40 28 45 46 29 41 47 48 48 55 63 63 61 55 48 41 39 39 32 26 21 15 22 27 30 24 17 14 10 3 7
11 10 13 18 35 37 39 29 23 29 14 30 21 23 27 45 42 32 47 53 54 53 60 64 65 62 57 49 50 43 34 30 26 18 17 27 30 26 21 18 16 12 4 7
7 3 10 9 8 19 39 31 28 19 20 11 20 47 59 39 31 30 44 55 55 55 58 57 60 56 51 51 48 39 31 28 22 14 22 29 35 27 23 20 17 11 2 5
6 8 18 23 4 10 9 4 18 12 22 17 33 42 23 20 7 31 43 54 53 53 55 57 56 54 52 52 45 35 28 25 23 19 23 28 38 28 25 20 19 11 3 4
8 8 9 5 4 24 14 7 10 7 15 20 22 9 10 15 14 19 37 45 51 50 53 56 56 53 53 49 43 34 30 25 20 16 20 23 33 30 23 21 16 11 6 1
17 10 12 15 24 24 10 1 19 18 21 28 11 16 6 8 23 15 27 37 47 51 55 54 54 56 52 46 41 34 29 24 23 22 21 20 23 25 22 21 20 15 9 5
7 8 9 22 23 10 13 35 30 29 26 33 41 34 24 15 29 7 26 42 45 54 57 55 55 55 51 46 38 33 28 29 25 24 21 20 20 21 20 18 20 19 14 9
4 4 9 22 32 54 55 40 24 29 41 31 30 19 26 23 34 10 17 46 48 55 59 59 58 53 52 43 42 37 32 31 29 24 21 18 18 18 17 17 20 20 17 13
9 5 21 14 37 37 35 27 37 18 16 8 8 16 28 28 30 9 22 41 50 49 57 60 58 56 44 42 44 40 36 36 32 26 20 17 12 12 10 11 17 19 18 15
7 12 34 20 45 43 52 47 43 22 14 7 12 24 24 30 26 21 18 23 47 45 54 57 57 54 52 45 45 43 38 35 33 28 20 16 15 12 7 8 7 5 7 8
6 31 19 24 34 52 58 54 52 36 29 27 33 38 32 31 19 14 9 3 27 41 46 56 59 51 54 47 45 46 41 35 37 32 26 18 14 19 15 14 14 14 11 10
13 45 24 33 39 45 49 50 51 49 33 14 61 59 34 39 37 26 7 4 26 38 42 51 60 53 53 49 46 48 40 34 36 37 31 22 16 24 22 16 15 13 12 13
41 37 23 35 29 41 38 44 50 48 39 41 61 56 56 46 41 34 18 7 6 20 34 40 54 52 53 50 46 47 41 31 29 35 36 25 18 24 23 12 8 7 10 11
37 34 26 28 31 31 30 30 36 42 41 47 53 53 52 63 59 36 29 15 12 22 37 34 35 42 48 53 49 48 45 38 32 33 36 30 20 23 24 18 11 4 16 12
26 34 36 35 31 31 26 24 24 37 48 51 54 52 44 49 63 67 58 24 16 30 34 36 44 45 49 54 52 49 45 41 32 32 37 36 28 24 26 24 19 12 14 17
32 41 37 39 33 29 28 23 20 25 32 43 43 42 40 43 47 53 52 53 54 43 35 23 23 34 45 51 53 51 48 44 42 33 33 39 35 31 26 26 24 21 15 14
23 23 25 31 32 30 32 27 19 21 27 25 26 34 37 36 38 37 45 47 49 50 49 45 27 2 25 34 45 46 45 42 43 42 36 35 40 37 31 27 24 24 24 22
19 20 22 29 36 35 30 30 25 15 14 17 20 30 32 33 34 35 31 27 35 45 50 42 34 25 5 16 30 39 43 41 38 41 42 41 38 41 40 33 29 28 28 28
17 16 16 24 35 41 33 31 27 17 14 18 20 22 28 29 25 27 31 38 40 36 34 32 29 31 22 9 7 25 37 37 37 35 36 40 44 44 45 42 35 31 32 34
13 15 16 22 33 39 42 40 37 33 21 17 16 18 22 24 25 19 18 25 28 27 27 25 22 25 27 18 12 12 26 35 37 32 27 27 31 36 42 47 49 46 41 40
8 10 13 15 26 36 37 40 43 44 41 35 26 17 13 15 18 22 22 21 17 15 17 17 18 18 19 20 26 27 20 13 19 24 24 27 26 24 27 33 40 47 51 52
8 6 8 9 17 26 27 34 39 43 45 50 48 45 42 38 34 29 30 29 22 15 15 18 16 13 14 16 22 27 32 30 26 24 21 17 16 16 17 19 23 27 32 36
14 6 5 9 10 16 23 30 34 38 41 45 47 44 42 43 45 39 31 25 32 31 30 27 20 20 23 31 32 36 37 40 43 44 45 37 34 28 25 22 16 12 5 3
15 9 6 7 9 14 18 24 28 33 38 43 46 47 45 45 48 44 38 32 30 34 35 34 31 32 39 43 47 48 50 48 46 44 43 41 39 40 38 36 33 29 26 23
25 16 12 9 11 12 15 16 21 26 29 36 41 44 44 46 47 48 47 47 44 42 38 34 34 39 44 46 48 48 49 48 48 47 46 45 42 39 37 34 30 27 27 25
30 27 24 22 18 14 14 15 18 23 23 27 35 38 41 44 49 55 59 62 62 62 60 57 54 52 50 49 49 49 49 49 46 44 41 41 39 38 37 36 35 33 32 31
Wind_Direction_500mb
243 260 268 259 268 271 262 256 249 327 292 288 304 309 298 299 318 233 195 182 176 171 167 168 166 164 164 163 163 160 154 150 148 152 150 154 148 157 154 151 146 149 100 39
280 263 245 251 259 258 251 246 255 257 269 272 279 285 290 296 313 226 202 188 185 181 176 169 169 169 168 166 164 159 156 161 169 166 165 163 155 152 152 154 153 158 97 51
269 264 322 288 246 237 243 238 219 234 224 260 283 291 281 286 300 231 202 191 189 187 182 177 173 171 168 167 160 160 168 179 177 182 183 170 173 167 173 170 163 167 76 63
265 7 245 227 341 301 244 230 221 248 247 231 268 279 278 278 284 230 201 194 191 187 184 185 173 169 167 168 169 175 186 191 184 176 169 171 171 167 174 181 172 179 82 79
231 220 285 298 35 350 356 219 220 245 262 282 296 288 268 233 245 209 200 197 194 186 185 184 179 167 164 167 173 185 190 189 182 171 175 179 178 175 178 180 174 187 155 84
180 244 258 139 265 335 297 278 83 298 285 279 298 226 245 198 180 169 193 195 188 187 187 185 183 173 166 170 180 187 182 188 178 172 170 179 184 187 185 191 194 193 187 99
233 241 276 15 327 307 199 276 320 307 299 285 254 242 304 206 175 136 171 189 188 186 187 183 181 179 179 181 187 186 189 173 168 170 158 158 169 185 191 193 198 202 202 189
214 236 248 3 323 301 337 316 297 311 305 291 288 289 232 203 182 84 170 184 188 187 186 185 184 182 183 184 175 186 181 177 170 177 175 184 184 194 199 205 209 209 205 196
241 296 261 290 272 286 298 284 289 318 304 295 298 256 205 175 180 192 186 181 188 189 186 194 194 191 186 182 188 189 184 176 183 184 190 201 204 208 214 217 216 214 205 196
293 264 308 279 338 328 322 306 351 330 306 335 251 204 186 158 150 98 136 177 188 193 196 196 198 200 191 186 192 193 192 192 193 191 190 199 207 212 226 227 212 209 204 194
254 287 326 339 341 340 352 20 19 36 44 75 105 134 143 145 145 81 61 185 202 197 204 203 200 203 199 190 192 196 200 200 203 197 194 192 192 175 142 118 105 114 167 178
322 303 304 296 339 7 5 6 20 18 42 60 82 97 102 103 111 62 358 239 207 212 214 211 206 203 201 195 194 197 203 207 207 202 193 187 185 168 153 128 119 110 113 121
302 324 346 6 23 17 5 2 29 32 19 299 82 82 90 80 83 103 67 98 200 213 221 218 209 202 199 196 196 197 205 211 208 208 201 191 186 180 167 147 128 120 117 132
3 5 1 33 27 22 19 15 25 24 8 56 77 79 80 77 78 75 109 89 231 215 216 215 209 203 200 200 200 204 209 212 211 211 206 200 191 182 183 184 148 152 149 143
10 25 39 41 40 34 36 29 22 14 18 64 74 73 76 80 84 78 85 49 17 174 180 184 198 202 207 206 206 207 213 217 216 212 210 207 196 191 192 191 183 192 179 168
18 29 35 47 46 46 49 43 28 20 31 57 73 74 69 73 82 81 92 106 123 119 140 167 189 196 201 209 212 212 214 221 222 219 218 213 206 203 198 196 200 199 197 189
30 24 27 38 38 28 35 45 44 36 39 53 67 83 85 82 79 78 80 79 69 75 85 115 164 188 202 208 209 215 217 220 221 222 226 226 218 213 210 207 211 211 208 213
71 64 52 47 37 37 31 29 46 54 50 54 75 85 87 82 76 78 81 79 79 76 69 58 48 291 206 214 212 217 217 221 223 225 226 231 231 227 220 216 216 221 220 223
65 60 48 47 39 34 39 34 42 70 88 76 86 85 87 80 70 72 76 77 65 66 65 59 50 45 23 217 214 216 223 219 226 230 234 235 237 238 233 229 225 226 229 234
73 61 49 54 42 39 43 45 47 66 91 100 98 96 91 88 79 69 67 69 69 64 60 61 60 56 55 79 191 221 226 216 222 231 237 243 247 246 243 242 240 237 240 247
91 79 81 58 51 47 43 43 51 61 80 95 103 94 83 80 76 82 82 73 73 71 64 60 62 69 68 79 107 176 205 208 206 216 229 244 255 261 259 254 251 253 254 258
112 115 105 75 51 51 55 55 60 65 70 77 77 83 82 79 72 64 61 59 59 76 78 79 70 75 89 93 101 108 130 160 180 192 211 227 234 242 249 253 255 256 258 262
161 132 114 99 66 62 61 56 53 53 58 62 65 68 72 73 69 67 63 52 56 67 83 94 81 72 86 121 101 99 97 99 105 120 157 162 166 201 216 229 242 250 256 259
177 154 151 128 83 67 76 67 64 68 68 69 69 68 73 76 75 72 72 81 81 82 85 87 97 100 96 94 99 99 102 102 100 103 106 113 118 125 120 110 103 96 82 231
188 158 116 114 89 87 87 84 80 79 77 74 74 73 73 75 77 77 77 85 94 90 88 86 90 97 95 93 91 91 93 95 95 94 93 93 91 91 92 91 90 89 87 85
191 172 131 97 85 88 107 100 93 85 79 80 78 75 73 74 77 80 81 81 82 83 86 88 89 89 88 88 88 86 85 83 81 79 79 79 79 76 73 71 67 63 61 57
191 180 168 156 137 122 121 119 108 101 92 85 84 79 78 80 82 83 82 82 81 81 81 82 82 83 84 82 80 79 79 80 79 78 75 71 66 63 57 53 49 46 41 35
Wind_Speed_850mb
18 22 20 21 26 29 29 24 18 7 6 26 30 33 32 48 45 17 24 36 42 50 54 58 60 59 56 50 43 38 39 35 27 21 17 18 17 23 32 21 14 10 4 6
20 22 27 31 30 34 36 36 34 29 28 32 41 40 28 45 46 29 41 47 48 48 55 63 63 61 55 48 41 39 39 32 26 21 15 22 27 30 24 17 14 10 3 7
11 10 13 18 35 37 39 29 23 29 14 30 21 23 27 45 42 32 47 53 54 53 60 64 65 62 57 49 50 43 34 30 26 18 17 27 30 26 21 18 16 12 4 7
7 3 10 9 8 19 39 31 28 19 20 11 20 47 59 39 31 30 44 55 55 55 58 57 60 56 51 51 48 39 31 28 22 14 22 29 35 27 23 20 17 11 2 5
6 8 18 23 4 10 9 4 18 12 22 17 33 42 23 20 7 31 43 54 53 53 55 57 56 54 52 52 45 35 28 25 23 19 23 28 38 28 25 20 19 11 3 4
8 8 9 5 4 24 14 7 10 7 15 20 22 9 10 15 14 19 37 45 51 50 53 56 56 53 53 49 43 34 30 25 20 16 20 23 33 30 23 21 16 11 6 1
17 10 12 15 24 24 10 1 19 18 21 28 11 16 6 8 23 15 27 37 47 51 55 54 54 56 52 46 41 34 29 24 23 22 21 20 23 25 22 21 20 15 9 5
7 8 9 22 23 10 13 35 30 29 26 33 41 34 24 15 29 7 26 42 45 54 57 55 55 55 51 46 38 33 28 29 25 24 21 20 20 21 20 18 20 19 14 9
4 4 9 22 32 54 55 40 24 29 41 31 30 19 26 23 34 10 17 46 48 55 59 59 58 53 52 43 42 37 32 31 29 24 21 18 18 18 17 17 20 20 17 13
9 5 21 14 37 37 35 27 37 18 16 8 8 16 28 28 30 9 22 41 50 49 57 60 58 56 44 42 44 40 36 36 32 26 20 17 12 12 10 11 17 19 18 15
7 12 34 20 45 43 52 47 43 22 14 7 12 24 24 30 26 21 18 23 47 45 54 57 57 54 52 45 45 43 38 35 33 28 20 16 15 12 7 8 7 5 7 8
6 31 19 24 34 52 58 54 52 36 29 27 33 38 32 31 19 14 9 3 27 41 46 56 59 51 54 47 45 46 41 35 37 32 26 18 14 19 15 14 14 14 11 10
13 45 24 33 39 45 49 50 51 49 33 14 61 59 34 39 37 26 7 4 26 38 42 51 60 53 53 49 46 48 40 34 36 37 31 22 16 24 22 16 15 13 12 13
41 37 23 35 29 41 38 44 50 48 39 41 61 56 56 46 41 34 18 7 6 20 34 40 54 52 53 50 46 47 41 31 29 35 36 25 18 24 23 12 8 7 10 11
37 34 26 28 31 31 30 30 36 42 41 47 53 53 52 63 59 36 29 15 12 22 37 34 35 42 48 53 49 48 45 38 32 33 36 30 20 23 24 18 11 4 16 12
26 34 36 35 31 31 26 24 24 37 48 51 54 52 44 49 63 67 58 24 16 30 34 36 44 45 49 54 52 49 45 41 32 32 37 36 28 24 26 24 19 12 14 17
32 41 37 39 33 29 28 23 20 25 32 43 43 42 40 43 47 53 52 53 54 43 35 23 23 34 45 51 53 51 48 44 42 33 33 39 35 31 26 26 24 21 15 14
23 23 25 31 32 30 32 27 19 21 27 25 26 34 37 36 38 37 45 47 49 50 49 45 27 2 25 34 45 46 45 42 43 42 36 35 40 37 31 27 24 24 24 22
19 20 22 29 36 35 30 30 25 15 14 17 20 30 32 33 34 35 31 27 35 45 50 42 34 25 5 16 30 39 43 41 38 41 42 41 38 41 40 33 29 28 28 28
17 16 16 24 35 41 33 31 27 17 14 18 20 22 28 29 25 27 31 38 40 36 34 32 29 31 22 9 7 25 37 37 37 35 36 40 44 44 45 42 35 31 32 34
13 15 16 22 33 39 42 40 37 33 21 17 16 18 22 24 25 19 18 25 28 27 27 25 22 25 27 18 12 12 26 35 37 32 27 27 31 36 42 47 49 46 41 40
8 10 13 15 26 36 37 40 43 44 41 35 26 17 13 15 18 22 22 21 17 15 17 17 18 18 19 20 26 27 20 13 19 24 24 27 26 24 27 33 40 47 51 52
8 6 8 9 17 26 27 34 39 43 45 50 48 45 42 38 34 29 30 29 22 15 15 18 16 13 14 16 22 27 32 30 26 24 21 17 16 16 17 19 23 27 32 36
14 6 5 9 10 16 23 30 34 38 41 45 47 44 42 43 45 39 31 25 32 31 30 27 20 20 23 31 32 36 37 40 43 44 45 37 34 28 25 22 16 12 5 3
15 9 6 7 9 14 18 24 28 33 38 43 46 47 45 45 48 44 38 32 30 34 35 34 31 32 39 43 47 48 50 48 46 44 43 41 39 40 38 36 33 29 26 23
25 16 12 9 11 12 15 16 21 26 29 36 41 44 44 46 47 48 47 47 44 42 38 34 34 39 44 46 48 48 49 48 48 47 46 45 42 39 37 34 30 27 27 25
30 27 24 22 18 14 14 15 18 23 23 27 35 38 41 44 49 55 59 62 62 62 60 57 54 52 50 49 49 49 49 49 46 44 41 41 39 38 37 36 35 33 32 31
Wind_Direction_850mb
243 260 268 259 268 271 262 256 249 327 292 288 304 309 298 299 318 233 195 182 176 171 167 168 166 164 164 163 163 160 154 150 148 152 150 154 148 157 154 151 146 149 100 39
280 263 245 251 259 258 251 246 255 257 269 272 279 285 290 296 313 226 202 188 185 181 176 169 169 169 168 166 164 159 156 161 169 166 165 163 155 152 152 154 153 158 97 51
269 264 322 288 246 237 243 238 219 234 224 260 283 291 281 286 300 231 202 191 189 187 182 177 173 171 168 167 160 160 168 179 177 182 183 170 173 167 173 170 163 167 76 63
265 7 245 227 341 301 244 230 221 248 247 231 268 279 278 278 284 230 201 194 191 187 184 185 173 169 167 168 169 175 186 191 184 176 169 171 171 167 174 181 172 179 82 79
231 220 285 298 35 350 356 219 220 245 262 282 296 288 268 233 245 209 200 197 194 186 185 184 179 167 164 167 173 185 190 189 182 171 175 179 178 175 178 180 174 187 155 84
180 244 258 139 265 335 297 278 83 298 285 279 298 226 245 198 180 169 193 195 188 187 187 185 183 173 166 170 180 187 182 188 178 172 170 179 184 187 185 191 194 193 187 99
233 241 276 15 327 307 199 276 320 307 299 285 254 242 304 206 175 136 171 189 188 186 187 183 181 179 179 181 187 186 189 173 168 170 158 158 169 185 191 193 198 202 202 189
214 236 248 3 323 301 337 316 297 311 305 291 288 289 232 203 182 84 170 184 188 187 186 185 184 182 183 184 175 186 181 177 170 177 175 184 184 194 199 205 209 209 205 196
241 296 261 290 272 286 298 284 289 318 304 295 298 256 205 175 180 192 186 181 188 189 186 194 194 191 186 182 188 189 184 176 183 184 190 201 204 208 214 217 216 214 205 196
293 264 308 279 338 328 322 306 351 330 306 335 251 204 186 158 150 98 136 177 188 193 196 196 198 200 191 186 192 193 192 192 193 191 190 199 207 212 226 227 212 209 204 194
254 287 326 339 341 340 352 20 19 36 44 75 105 134 143 145 145 81 61 185 202 197 204 203 200 203 199 190 192 196 200 200 203 197 194 192 192 175 142 118 105 114 167 178
322 303 304 296 339 7 5 6 20 18 42 60 82 97 102 103 111 62 358 239 207 212 214 211 206 203 201 195 194 197 203 207 207 202 193 187 185 168 153 128 119 110 113 121
302 324 346 6 23 17 5 2 29 32 19 299 82 82 90 80 83 103 67 98 200 213 221 218 209 202 199 196 196 197 205 211 208 208 201 191 186 180 167 147 128 120 117 132
3 5 1 33 27 22 19 15 25 24 8 56 77 79 80 77 78 75 109 89 231 215 216 215 209 203 200 200 200 204 209 212 211 211 206 200 191 182 183 184 148 152 149 143
10 25 39 41 40 34 36 29 22 14 18 64 74 73 76 80 84 78 85 49 17 174 180 184 198 202 207 206 206 207 213 217 216 212 210 207 196 191 192 191 183 192 179 168
18 29 35 47 46 46 49 43 28 20 31 57 73 74 69 73 82 81 92 106 123 119 140 167 189 196 201 209 212 212 214 221 222 219 218 213 206 203 198 196 200 199 197 189
30 24 27 38 38 28 35 45 44 36 39 53 67 83 85 82 79 78 80 79 69 75 85 115 164 188 202 208 209 215 217 220 221 222 226 226 218 213 210 207 211 211 208 213
71 64 52 47 37 37 31 29 46 54 50 54 75 85 87 82 76 78 81 79 79 76 69 58 48 291 206 214 212 217 217 221 223 225 226 231 231 227 220 216 216 221 220 223
65 60 48 47 39 34 39 34 42 70 88 76 86 85 87 80 70 72 76 77 65 66 65 59 50 45 23 217 214 216 223 219 226 230 234 235 237 238 233 229 225 226 229 234
73 61 49 54 42 39 43 45 47 66 91 100 98 96 91 88 79 69 67 69 69 64 60 61 60 56 55 79 191 221 226 216 222 231 237 243 247 246 243 242 240 237 240 247
91 79 81 58 51 47 43 43 51 61 80 95 103 94 83 80 76 82 82 73 73 71 64 60 62 69 68 79 107 176 205 208 206 216 229 244 255 261 259 254 251 253 254 258
112 115 105 75 51 51 55 55 60 65 70 77 77 83 82 79 72 64 61 59 59 76 78 79 70 75 89 93 101 108 130 160 180 192 211 227 234 242 249 253 255 256 258 262
161 132 114 99 66 62 61 56 53 53 58 62 65 68 72 73 69 67 63 52 56 67 83 94 81 72 86 121 101 99 97 99 105 120 157 162 166 201 216 229 242 250 256 259
177 154 151 128 83 67 76 67 64 68 68 69 69 68 73 76 75 72 72 81 81 82 85 87 97 100 96 94 99 99 102 102 100 103 106 113 118 125 120 110 103 96 82 231
188 158 116 114 89 87 87 84 80 79 77 74 74 73 73 75 77 77 77 85 94 90 88 86 90 97 95 93 91 91 93 95 95 94 93 93 91 91 92 91 90 89 87 85
191 172 131 97 85 88 107 100 93 85 79 80 78 75 73 74 77 80 81 81 82 83 86 88 89 89 88 88 88 86 85 83 81 79 79 79 79 76 73 71 67 63 61 57
191 180 168 156 137 122 121 119 108 101 92 85 84 79 78 80 82 83 82 82 81 81 81 82 82 83 84 82 80 79 79 80 79 78 75 71 66 63 57 53 49 46 41 35